Time,TemperatureF,DewpointF,PressureIn,WindDirection,WindDirectionDegrees,WindSpeedMPH,WindSpeedGustMPH,Humidity,HourlyPrecipIn,Conditions,Clouds,dailyrainin,SoftwareType,DateUTC
2013-03-02 00:01:00,39.0,28.9,30.16,North,0,0.0,0.0,67,0.00,,,0.00,WUHU21623XXSP,2013-03-02 06:01:00,
2013-03-02 00:06:00,38.8,28.4,30.16,North,0,0.0,0.0,66,0.00,,,0.00,WUHU21623XXSP,2013-03-02 06:06:00,
2013-03-02 00:11:00,38.7,28.7,30.17,North,0,0.0,0.0,67,0.00,,,0.00,WUHU21623XXSP,2013-03-02 06:11:00,
2013-03-02 00:16:00,38.5,28.4,30.16,North,0,0.0,0.0,67,0.00,,,0.00,WUHU21623XXSP,2013-03-02 06:16:00,
2013-03-02 00:21:00,38.3,28.6,30.17,North,0,0.0,0.0,68,0.00,,,0.00,WUHU21623XXSP,2013-03-02 06:21:00,
2013-03-02 00:26:00,37.9,28.5,30.16,North,0,0.0,0.0,68,0.00,,,0.00,WUHU21623XXSP,2013-03-02 06:26:00,
2013-03-02 00:31:00,37.9,28.3,30.16,North,0,0.0,0.0,68,0.00,,,0.00,WUHU21623XXSP,2013-03-02 06:31:00,
2013-03-02 00:36:00,37.8,28.1,30.16,North,0,0.0,0.0,68,0.00,,,0.00,WUHU21623XXSP,2013-03-02 06:36:00,
2013-03-02 00:41:00,37.4,27.8,30.17,North,0,0.0,0.0,68,0.00,,,0.00,WUHU21623XXSP,2013-03-02 06:41:00,
2013-03-02 00:46:00,37.2,27.8,30.17,North,0,0.0,0.0,68,0.00,,,0.00,WUHU21623XXSP,2013-03-02 06:46:00,
2013-03-02 00:51:00,37.0,27.6,30.16,North,0,0.0,0.0,68,0.00,,,0.00,WUHU21623XXSP,2013-03-02 06:51:00,
2013-03-02 00:56:00,36.7,27.5,30.16,North,0,0.0,0.0,69,0.00,,,0.00,WUHU21623XXSP,2013-03-02 06:56:00,
2013-03-02 01:01:00,36.5,27.7,30.16,North,0,0.0,0.0,70,0.00,,,0.00,WUHU21623XXSP,2013-03-02 07:01:00,
2013-03-02 01:11:00,36.5,27.7,30.16,North,0,0.0,0.0,70,0.00,,,0.00,WUHU21623XXSP,2013-03-02 07:11:00,
2013-03-02 01:16:00,36.1,27.3,30.16,North,0,0.0,0.0,70,0.00,,,0.00,WUHU21623XXSP,2013-03-02 07:16:00,
2013-03-02 01:21:00,35.8,27.0,30.15,North,0,0.0,0.0,70,0.00,,,0.00,WUHU21623XXSP,2013-03-02 07:21:00,
2013-03-02 01:26:00,35.6,27.0,30.15,North,0,0.0,0.0,70,0.00,,,0.00,WUHU21623XXSP,2013-03-02 07:26:00,
2013-03-02 01:31:00,35.4,26.9,30.15,North,0,0.0,0.0,71,0.00,,,0.00,WUHU21623XXSP,2013-03-02 07:31:00,
2013-03-02 01:36:00,35.2,26.7,30.15,North,0,0.0,0.0,71,0.00,,,0.00,WUHU21623XXSP,2013-03-02 07:36:00,
2013-03-02 01:41:00,35.2,26.7,30.15,North,0,0.0,0.0,71,0.00,,,0.00,WUHU21623XXSP,2013-03-02 07:41:00,
2013-03-02 01:46:00,34.9,26.4,30.15,North,0,0.0,0.0,71,0.00,,,0.00,WUHU21623XXSP,2013-03-02 07:46:00,
2013-03-02 01:51:00,34.5,26.5,30.15,North,0,0.0,0.0,72,0.00,,,0.00,WUHU21623XXSP,2013-03-02 07:51:00,
2013-03-02 01:56:00,34.3,26.2,30.15,North,0,0.0,0.0,72,0.00,,,0.00,WUHU21623XXSP,2013-03-02 07:56:00,
2013-03-02 02:01:00,34.2,26.0,30.15,North,0,0.0,0.0,72,0.00,,,0.00,WUHU21623XXSP,2013-03-02 08:01:00,
2013-03-02 02:06:00,34.0,25.8,30.15,North,0,0.0,0.0,72,0.00,,,0.00,WUHU21623XXSP,2013-03-02 08:06:00,
2013-03-02 02:11:00,33.6,25.8,30.15,North,0,0.0,0.0,73,0.00,,,0.00,WUHU21623XXSP,2013-03-02 08:11:00,
2013-03-02 02:16:00,33.6,25.8,30.15,North,0,0.0,0.0,73,0.00,,,0.00,WUHU21623XXSP,2013-03-02 08:16:00,
2013-03-02 02:21:00,33.3,25.5,30.14,North,0,0.0,0.0,73,0.00,,,0.00,WUHU21623XXSP,2013-03-02 08:21:00,
2013-03-02 02:26:00,33.1,25.3,30.14,North,0,0.0,0.0,73,0.00,,,0.00,WUHU21623XXSP,2013-03-02 08:26:00,
2013-03-02 02:31:00,32.7,25.0,30.14,North,0,0.0,0.0,74,0.00,,,0.00,WUHU21623XXSP,2013-03-02 08:31:00,
2013-03-02 02:36:00,32.5,25.1,30.14,North,0,0.0,0.0,74,0.00,,,0.00,WUHU21623XXSP,2013-03-02 08:36:00,
2013-03-02 02:41:00,32.4,25.1,30.14,North,0,0.0,0.0,75,0.00,,,0.00,WUHU21623XXSP,2013-03-02 08:41:00,
2013-03-02 02:46:00,32.2,25.5,30.14,North,0,0.0,0.0,76,0.00,,,0.00,WUHU21623XXSP,2013-03-02 08:46:00,
2013-03-02 02:51:00,32.2,25.5,30.14,North,0,0.0,0.0,76,0.00,,,0.00,WUHU21623XXSP,2013-03-02 08:51:00,
2013-03-02 02:56:00,32.2,25.5,30.14,North,0,0.0,0.0,76,0.00,,,0.00,WUHU21623XXSP,2013-03-02 08:56:00,
2013-03-02 03:01:00,32.2,25.5,30.14,North,0,0.0,0.0,76,0.00,,,0.00,WUHU21623XXSP,2013-03-02 09:01:00,
2013-03-02 03:06:00,32.0,25.8,30.14,North,0,0.0,0.0,77,0.00,,,0.00,WUHU21623XXSP,2013-03-02 09:06:00,
2013-03-02 03:11:00,32.2,26.1,30.13,North,0,0.0,0.0,78,0.00,,,0.00,WUHU21623XXSP,2013-03-02 09:11:00,
2013-03-02 03:16:00,32.2,26.4,30.14,North,0,0.0,0.0,79,0.00,,,0.00,WUHU21623XXSP,2013-03-02 09:16:00,
2013-03-02 03:21:00,32.2,26.4,30.14,North,0,0.0,0.0,79,0.00,,,0.00,WUHU21623XXSP,2013-03-02 09:21:00,
2013-03-02 03:26:00,32.2,26.4,30.13,North,0,0.0,0.0,79,0.00,,,0.00,WUHU21623XXSP,2013-03-02 09:26:00,
2013-03-02 03:31:00,32.2,26.4,30.13,North,0,0.0,0.0,79,0.00,,,0.00,WUHU21623XXSP,2013-03-02 09:31:00,
2013-03-02 03:36:00,32.2,26.4,30.13,North,0,0.0,0.0,79,0.00,,,0.00,WUHU21623XXSP,2013-03-02 09:36:00,
2013-03-02 03:41:00,32.2,26.4,30.13,North,0,0.0,0.0,79,0.00,,,0.00,WUHU21623XXSP,2013-03-02 09:41:00,
2013-03-02 03:46:00,32.4,26.6,30.13,North,0,0.0,0.0,79,0.00,,,0.00,WUHU21623XXSP,2013-03-02 09:46:00,
2013-03-02 03:51:00,32.5,26.8,30.13,North,0,0.0,0.0,79,0.00,,,0.00,WUHU21623XXSP,2013-03-02 09:51:00,
2013-03-02 03:56:00,32.7,26.6,30.13,North,0,0.0,0.0,78,0.00,,,0.00,WUHU21623XXSP,2013-03-02 09:56:00,
2013-03-02 04:01:00,32.7,26.6,30.14,North,0,0.0,0.0,78,0.00,,,0.00,WUHU21623XXSP,2013-03-02 10:01:00,
2013-03-02 04:06:00,32.7,26.6,30.14,North,0,0.0,0.0,78,0.00,,,0.00,WUHU21623XXSP,2013-03-02 10:06:00,
2013-03-02 04:12:00,32.9,26.3,30.13,North,0,0.0,0.0,77,0.00,,,0.00,WUHU21623XXSP,2013-03-02 10:12:00,
2013-03-02 04:17:00,32.9,26.4,30.14,North,0,0.0,0.0,77,0.00,,,0.00,WUHU21623XXSP,2013-03-02 10:17:00,
2013-03-02 04:22:00,32.9,26.4,30.14,North,0,0.0,0.0,77,0.00,,,0.00,WUHU21623XXSP,2013-03-02 10:22:00,
2013-03-02 04:27:00,32.9,26.4,30.14,North,0,0.0,0.0,77,0.00,,,0.00,WUHU21623XXSP,2013-03-02 10:27:00,
2013-03-02 04:32:00,32.9,26.4,30.14,North,0,0.0,0.0,77,0.00,,,0.00,WUHU21623XXSP,2013-03-02 10:32:00,
2013-03-02 04:37:00,32.9,26.4,30.15,North,0,0.0,0.0,77,0.00,,,0.00,WUHU21623XXSP,2013-03-02 10:37:00,
2013-03-02 04:42:00,32.9,26.4,30.15,North,0,0.0,0.0,77,0.00,,,0.00,WUHU21623XXSP,2013-03-02 10:42:00,
2013-03-02 04:47:00,32.7,26.3,30.15,North,0,0.0,0.0,77,0.00,,,0.00,WUHU21623XXSP,2013-03-02 10:47:00,
2013-03-02 04:52:00,32.7,26.3,30.15,North,0,0.0,0.0,77,0.00,,,0.00,WUHU21623XXSP,2013-03-02 10:52:00,
2013-03-02 04:57:00,32.7,26.3,30.15,North,0,0.0,0.0,77,0.00,,,0.00,WUHU21623XXSP,2013-03-02 10:57:00,
2013-03-02 05:02:00,32.7,26.0,30.15,North,0,0.0,0.0,76,0.00,,,0.00,WUHU21623XXSP,2013-03-02 11:02:00,
2013-03-02 05:07:00,32.5,25.8,30.15,North,0,0.0,0.0,76,0.00,,,0.00,WUHU21623XXSP,2013-03-02 11:07:00,
2013-03-02 05:12:00,32.4,25.6,30.15,North,0,0.0,0.0,76,0.00,,,0.00,WUHU21623XXSP,2013-03-02 11:12:00,
2013-03-02 05:17:00,32.2,25.5,30.15,North,0,0.0,0.0,76,0.00,,,0.00,WUHU21623XXSP,2013-03-02 11:17:00,
2013-03-02 05:22:00,32.2,25.5,30.15,North,0,0.0,0.0,76,0.00,,,0.00,WUHU21623XXSP,2013-03-02 11:22:00,
2013-03-02 05:27:00,31.8,25.1,30.16,North,0,0.0,0.0,76,0.00,,,0.00,WUHU21623XXSP,2013-03-02 11:27:00,
2013-03-02 05:32:00,31.8,25.1,30.16,North,0,0.0,0.0,76,0.00,,,0.00,WUHU21623XXSP,2013-03-02 11:32:00,
2013-03-02 05:37:00,31.3,24.6,30.16,North,0,0.0,0.0,76,0.00,,,0.00,WUHU21623XXSP,2013-03-02 11:37:00,
2013-03-02 05:42:00,31.3,24.6,30.16,North,0,0.0,0.0,76,0.00,,,0.00,WUHU21623XXSP,2013-03-02 11:42:00,
2013-03-02 05:47:00,30.9,24.2,30.16,North,0,0.0,0.0,76,0.00,,,0.00,WUHU21623XXSP,2013-03-02 11:47:00,
2013-03-02 05:52:00,30.7,24.4,30.16,North,0,0.0,0.0,77,0.00,,,0.00,WUHU21623XXSP,2013-03-02 11:52:00,
2013-03-02 05:57:00,30.6,23.9,30.16,North,0,0.0,0.0,76,0.00,,,0.00,WUHU21623XXSP,2013-03-02 11:57:00,
2013-03-02 06:02:00,30.6,24.2,30.16,North,0,0.0,0.0,77,0.00,,,0.00,WUHU21623XXSP,2013-03-02 12:02:00,
2013-03-02 06:07:00,30.2,23.8,30.17,North,0,0.0,0.0,77,0.00,,,0.00,WUHU21623XXSP,2013-03-02 12:07:00,
2013-03-02 06:12:00,30.0,23.6,30.17,North,0,0.0,0.0,77,0.00,,,0.00,WUHU21623XXSP,2013-03-02 12:12:00,
2013-03-02 06:17:00,29.8,23.5,30.17,North,0,0.0,0.0,77,0.00,,,0.00,WUHU21623XXSP,2013-03-02 12:17:00,
2013-03-02 06:22:00,29.7,23.6,30.18,North,0,0.0,0.0,78,0.00,,,0.00,WUHU21623XXSP,2013-03-02 12:22:00,
2013-03-02 06:27:00,29.5,23.1,30.18,North,0,0.0,0.0,77,0.00,,,0.00,WUHU21623XXSP,2013-03-02 12:27:00,
2013-03-02 06:32:00,29.5,23.4,30.18,North,0,0.0,0.0,78,0.00,,,0.00,WUHU21623XXSP,2013-03-02 12:32:00,
2013-03-02 06:37:00,29.3,23.3,30.18,North,0,0.0,0.0,78,0.00,,,0.00,WUHU21623XXSP,2013-03-02 12:37:00,
2013-03-02 06:43:00,29.3,23.3,30.18,North,0,0.0,0.0,78,0.00,,,0.00,WUHU21623XXSP,2013-03-02 12:43:00,
2013-03-02 06:46:00,29.1,23.1,30.18,North,0,0.0,0.0,78,0.00,,,0.00,WUHU21623XXSP,2013-03-02 12:46:00,
2013-03-02 06:52:00,29.1,23.4,30.18,North,0,0.0,0.0,79,0.00,,,0.00,WUHU21623XXSP,2013-03-02 12:52:00,
2013-03-02 06:56:00,29.1,23.4,30.19,North,0,0.0,0.0,79,0.00,,,0.00,WUHU21623XXSP,2013-03-02 12:56:00,
2013-03-02 07:03:00,29.3,23.9,30.19,North,0,0.0,0.0,80,0.00,,,0.00,WUHU21623XXSP,2013-03-02 13:03:00,
2013-03-02 07:09:00,29.7,24.5,30.19,North,0,0.0,0.0,81,0.00,,,0.00,WUHU21623XXSP,2013-03-02 13:09:00,
2013-03-02 07:14:00,29.8,24.7,30.19,North,0,0.0,0.0,81,0.00,,,0.00,WUHU21623XXSP,2013-03-02 13:14:00,
2013-03-02 07:24:00,30.2,25.1,30.19,North,0,0.0,0.0,81,0.00,,,0.00,WUHU21623XXSP,2013-03-02 13:24:00,
2013-03-02 07:29:00,30.7,25.9,30.19,North,0,0.0,0.0,82,0.00,,,0.00,WUHU21623XXSP,2013-03-02 13:29:00,
2013-03-02 07:34:00,31.1,26.3,30.19,North,0,0.0,0.0,82,0.00,,,0.00,WUHU21623XXSP,2013-03-02 13:34:00,
2013-03-02 07:42:00,31.3,26.5,30.19,North,0,0.0,0.0,82,0.00,,,0.00,WUHU21623XXSP,2013-03-02 13:42:00,
2013-03-02 07:47:00,32.4,27.5,30.20,North,0,0.0,0.0,82,0.00,,,0.00,WUHU21623XXSP,2013-03-02 13:47:00,
2013-03-02 07:52:00,33.1,27.9,30.20,North,0,0.0,0.0,81,0.00,,,0.00,WUHU21623XXSP,2013-03-02 13:52:00,
2013-03-02 07:57:00,33.8,28.2,30.21,North,0,0.0,0.0,80,0.00,,,0.00,WUHU21623XXSP,2013-03-02 13:57:00,
2013-03-02 08:02:00,34.3,28.4,30.21,North,0,0.0,0.0,79,0.00,,,0.00,WUHU21623XXSP,2013-03-02 14:02:00,
2013-03-02 08:07:00,35.2,29.0,30.21,North,0,0.0,0.0,78,0.00,,,0.00,WUHU21623XXSP,2013-03-02 14:07:00,
2013-03-02 08:12:00,36.0,29.1,30.21,North,0,0.0,0.0,76,0.00,,,0.00,WUHU21623XXSP,2013-03-02 14:12:00,
2013-03-02 08:17:00,36.5,29.0,30.20,North,0,0.0,0.0,74,0.00,,,0.00,WUHU21623XXSP,2013-03-02 14:17:00,
2013-03-02 08:22:00,37.4,29.2,30.21,North,0,0.0,0.0,72,0.00,,,0.00,WUHU21623XXSP,2013-03-02 14:22:00,
2013-03-02 08:27:00,37.9,29.4,30.21,North,0,0.0,0.0,71,0.00,,,0.00,WUHU21623XXSP,2013-03-02 14:27:00,
2013-03-02 08:32:00,38.3,29.2,30.21,North,0,0.0,0.0,70,0.00,,,0.00,WUHU21623XXSP,2013-03-02 14:32:00,
2013-03-02 08:37:00,38.7,29.3,30.21,North,0,0.0,0.0,69,0.00,,,0.00,WUHU21623XXSP,2013-03-02 14:37:00,
2013-03-02 08:42:00,38.8,29.1,30.21,North,0,0.0,0.0,68,0.00,,,0.00,WUHU21623XXSP,2013-03-02 14:42:00,
2013-03-02 08:47:00,39.0,28.9,30.21,North,0,0.0,0.0,67,0.00,,,0.00,WUHU21623XXSP,2013-03-02 14:47:00,
2013-03-02 08:52:00,39.2,29.1,30.21,North,0,0.0,0.0,67,0.00,,,0.00,WUHU21623XXSP,2013-03-02 14:52:00,
2013-03-02 08:57:00,39.6,29.0,30.20,North,0,0.0,0.0,66,0.00,,,0.00,WUHU21623XXSP,2013-03-02 14:57:00,
2013-03-02 09:02:00,39.9,29.0,30.20,North,0,0.0,0.0,65,0.00,,,0.00,WUHU21623XXSP,2013-03-02 15:02:00,
2013-03-02 09:07:00,40.5,29.2,30.20,North,0,0.0,0.0,64,0.00,,,0.00,WUHU21623XXSP,2013-03-02 15:07:00,
2013-03-02 09:12:00,40.8,29.6,30.20,North,0,0.0,0.0,64,0.00,,,0.00,WUHU21623XXSP,2013-03-02 15:12:00,
2013-03-02 09:17:00,41.4,29.7,30.20,North,0,0.0,0.0,63,0.00,,,0.00,WUHU21623XXSP,2013-03-02 15:17:00,
2013-03-02 09:22:00,41.5,29.5,30.20,North,0,0.0,0.0,62,0.00,,,0.00,WUHU21623XXSP,2013-03-02 15:22:00,
2013-03-02 09:27:00,41.7,29.2,30.20,North,0,0.0,0.0,61,0.00,,,0.00,WUHU21623XXSP,2013-03-02 15:27:00,
2013-03-02 09:32:00,41.9,29.4,30.20,North,0,0.0,0.0,61,0.00,,,0.00,WUHU21623XXSP,2013-03-02 15:32:00,
2013-03-02 09:37:00,42.1,29.2,30.20,North,0,0.0,0.0,60,0.00,,,0.00,WUHU21623XXSP,2013-03-02 15:37:00,
2013-03-02 09:42:00,42.1,29.2,30.19,North,0,0.0,0.0,60,0.00,,,0.00,WUHU21623XXSP,2013-03-02 15:42:00,
2013-03-02 09:47:00,42.3,29.4,30.19,North,0,0.0,0.0,60,0.00,,,0.00,WUHU21623XXSP,2013-03-02 15:47:00,
2013-03-02 09:52:00,42.4,29.1,30.19,North,0,0.0,0.0,59,0.00,,,0.00,WUHU21623XXSP,2013-03-02 15:52:00,
2013-03-02 09:57:00,42.6,29.2,30.19,North,0,0.0,0.0,59,0.00,,,0.00,WUHU21623XXSP,2013-03-02 15:57:00,
2013-03-02 10:02:00,42.6,28.8,30.19,North,0,0.0,0.0,58,0.00,,,0.00,WUHU21623XXSP,2013-03-02 16:02:00,
2013-03-02 10:07:00,43.2,29.8,30.19,North,0,0.0,0.0,59,0.00,,,0.00,WUHU21623XXSP,2013-03-02 16:07:00,
2013-03-02 10:12:00,43.3,29.5,30.19,North,0,0.0,0.0,58,0.00,,,0.00,WUHU21623XXSP,2013-03-02 16:12:00,
2013-03-02 10:17:00,43.5,29.7,30.18,North,0,0.0,0.0,58,0.00,,,0.00,WUHU21623XXSP,2013-03-02 16:17:00,
2013-03-02 10:22:00,43.9,30.0,30.18,North,0,0.0,0.0,58,0.00,,,0.00,WUHU21623XXSP,2013-03-02 16:22:00,
2013-03-02 10:27:00,43.9,29.6,30.18,North,0,0.0,0.0,57,0.00,,,0.00,WUHU21623XXSP,2013-03-02 16:27:00,
2013-03-02 10:32:00,44.2,29.5,30.18,North,0,0.0,0.0,56,0.00,,,0.00,WUHU21623XXSP,2013-03-02 16:32:00,
2013-03-02 10:37:00,44.4,29.2,30.18,North,0,0.0,0.0,55,0.00,,,0.00,WUHU21623XXSP,2013-03-02 16:37:00,
2013-03-02 10:42:00,44.4,29.7,30.18,North,0,0.0,0.0,56,0.00,,,0.00,WUHU21623XXSP,2013-03-02 16:42:00,
2013-03-02 10:47:00,44.8,30.0,30.18,North,0,0.0,0.0,56,0.00,,,0.00,WUHU21623XXSP,2013-03-02 16:47:00,
2013-03-02 10:52:00,45.1,29.4,30.18,North,0,0.0,0.0,54,0.00,,,0.00,WUHU21623XXSP,2013-03-02 16:52:00,
2013-03-02 10:57:00,45.3,29.6,30.18,North,0,0.0,0.0,54,0.00,,,0.00,WUHU21623XXSP,2013-03-02 16:57:00,
2013-03-02 11:02:00,45.7,30.4,30.17,North,0,0.0,0.0,55,0.00,,,0.00,WUHU21623XXSP,2013-03-02 17:02:00,
2013-03-02 11:07:00,46.0,29.8,30.17,North,0,0.0,0.0,53,0.00,,,0.00,WUHU21623XXSP,2013-03-02 17:07:00,
2013-03-02 11:12:00,46.0,29.8,30.17,North,0,0.0,0.0,53,0.00,,,0.00,WUHU21623XXSP,2013-03-02 17:12:00,
2013-03-02 11:17:00,46.2,29.9,30.17,North,0,0.0,0.0,53,0.00,,,0.00,WUHU21623XXSP,2013-03-02 17:17:00,
2013-03-02 11:22:00,46.9,30.1,30.17,North,0,0.0,0.0,52,0.00,,,0.00,WUHU21623XXSP,2013-03-02 17:22:00,
2013-03-02 11:27:00,47.5,30.6,30.17,North,0,0.0,0.0,52,0.00,,,0.00,WUHU21623XXSP,2013-03-02 17:27:00,
2013-03-02 11:32:00,48.0,30.7,30.17,North,0,0.0,0.0,51,0.00,,,0.00,WUHU21623XXSP,2013-03-02 17:32:00,
2013-03-02 11:37:00,48.4,30.0,30.17,North,0,0.0,0.0,49,0.00,,,0.00,WUHU21623XXSP,2013-03-02 17:37:00,
2013-03-02 11:42:00,48.0,29.7,30.16,North,0,0.0,0.0,49,0.00,,,0.00,WUHU21623XXSP,2013-03-02 17:42:00,
2013-03-02 11:47:00,47.8,30.1,30.16,North,0,0.0,0.0,50,0.00,,,0.00,WUHU21623XXSP,2013-03-02 17:47:00,
2013-03-02 11:52:00,47.5,29.7,30.16,North,0,0.0,0.0,50,0.00,,,0.00,WUHU21623XXSP,2013-03-02 17:52:00,
2013-03-02 11:57:00,47.1,29.4,30.16,North,0,0.0,0.0,50,0.00,,,0.00,WUHU21623XXSP,2013-03-02 17:57:00,
2013-03-02 12:02:00,46.8,29.1,30.16,North,0,0.0,0.0,50,0.00,,,0.00,WUHU21623XXSP,2013-03-02 18:02:00,
2013-03-02 12:07:00,46.2,29.0,30.15,North,0,0.0,0.0,51,0.00,,,0.00,WUHU21623XXSP,2013-03-02 18:07:00,
2013-03-02 12:12:00,46.2,29.0,30.16,North,0,0.0,0.0,51,0.00,,,0.00,WUHU21623XXSP,2013-03-02 18:12:00,
2013-03-02 12:17:00,46.2,29.0,30.16,North,0,0.0,0.0,51,0.00,,,0.00,WUHU21623XXSP,2013-03-02 18:17:00,
2013-03-02 12:22:00,46.2,29.0,30.15,North,0,0.0,0.0,51,0.00,,,0.00,WUHU21623XXSP,2013-03-02 18:22:00,
2013-03-02 12:27:00,46.2,29.0,30.15,North,0,0.0,0.0,51,0.00,,,0.00,WUHU21623XXSP,2013-03-02 18:27:00,
2013-03-02 12:32:00,46.2,29.0,30.15,North,0,0.0,0.0,51,0.00,,,0.00,WUHU21623XXSP,2013-03-02 18:32:00,
2013-03-02 12:37:00,46.8,29.5,30.14,North,0,0.0,0.0,51,0.00,,,0.00,WUHU21623XXSP,2013-03-02 18:37:00,
2013-03-02 12:42:00,47.1,29.4,30.14,North,0,0.0,0.0,50,0.00,,,0.00,WUHU21623XXSP,2013-03-02 18:42:00,
2013-03-02 12:47:00,46.9,29.2,30.14,North,0,0.0,0.0,50,0.00,,,0.00,WUHU21623XXSP,2013-03-02 18:47:00,
2013-03-02 12:52:00,46.9,29.2,30.13,North,0,0.0,0.0,50,0.00,,,0.00,WUHU21623XXSP,2013-03-02 18:52:00,
2013-03-02 12:57:00,46.9,29.2,30.13,North,0,0.0,0.0,50,0.00,,,0.00,WUHU21623XXSP,2013-03-02 18:57:00,
2013-03-02 13:02:00,46.8,29.1,30.13,North,0,0.0,0.0,50,0.00,,,0.00,WUHU21623XXSP,2013-03-02 19:02:00,
2013-03-02 13:07:00,46.2,28.6,30.13,North,0,0.0,0.0,50,0.00,,,0.00,WUHU21623XXSP,2013-03-02 19:07:00,
2013-03-02 13:12:00,46.0,28.4,30.13,North,0,0.0,0.0,50,0.00,,,0.00,WUHU21623XXSP,2013-03-02 19:12:00,
2013-03-02 13:17:00,45.7,28.1,30.13,North,0,0.0,0.0,50,0.00,,,0.00,WUHU21623XXSP,2013-03-02 19:17:00,
2013-03-02 13:22:00,45.7,28.4,30.12,North,0,0.0,0.0,51,0.00,,,0.00,WUHU21623XXSP,2013-03-02 19:22:00,
2013-03-02 13:27:00,45.7,28.1,30.12,North,0,0.0,0.0,50,0.00,,,0.00,WUHU21623XXSP,2013-03-02 19:27:00,
2013-03-02 13:32:00,45.7,28.1,30.13,North,0,0.0,0.0,50,0.00,,,0.00,WUHU21623XXSP,2013-03-02 19:32:00,
2013-03-02 13:37:00,45.7,28.1,30.12,North,0,0.0,0.0,50,0.00,,,0.00,WUHU21623XXSP,2013-03-02 19:37:00,
2013-03-02 13:42:00,45.7,28.1,30.12,North,0,0.0,0.0,50,0.00,,,0.00,WUHU21623XXSP,2013-03-02 19:42:00,
2013-03-02 13:47:00,45.7,28.1,30.12,North,0,0.0,0.0,50,0.00,,,0.00,WUHU21623XXSP,2013-03-02 19:47:00,
2013-03-02 13:52:00,45.7,28.1,30.12,North,0,0.0,0.0,50,0.00,,,0.00,WUHU21623XXSP,2013-03-02 19:52:00,
2013-03-02 13:57:00,45.7,28.1,30.12,North,0,0.0,0.0,50,0.00,,,0.00,WUHU21623XXSP,2013-03-02 19:57:00,
2013-03-02 14:02:00,45.7,28.1,30.12,North,0,0.0,0.0,50,0.00,,,0.00,WUHU21623XXSP,2013-03-02 20:02:00,
2013-03-02 14:07:00,45.7,27.6,30.12,North,0,0.0,0.0,49,0.00,,,0.00,WUHU21623XXSP,2013-03-02 20:07:00,
2013-03-02 14:12:00,45.7,27.6,30.12,North,0,0.0,0.0,49,0.00,,,0.00,WUHU21623XXSP,2013-03-02 20:12:00,
2013-03-02 14:17:00,45.7,27.6,30.12,North,0,0.0,0.0,49,0.00,,,0.00,WUHU21623XXSP,2013-03-02 20:17:00,
2013-03-02 14:22:00,45.7,27.6,30.12,North,0,0.0,0.0,49,0.00,,,0.00,WUHU21623XXSP,2013-03-02 20:22:00,
2013-03-02 14:27:00,45.5,27.9,30.12,North,0,0.0,0.0,50,0.00,,,0.00,WUHU21623XXSP,2013-03-02 20:27:00,
2013-03-02 14:32:00,45.3,27.8,30.13,North,0,0.0,0.0,50,0.00,,,0.00,WUHU21623XXSP,2013-03-02 20:32:00,
2013-03-02 14:37:00,45.0,27.5,30.12,North,0,0.0,0.0,50,0.00,,,0.00,WUHU21623XXSP,2013-03-02 20:37:00,
2013-03-02 14:42:00,44.8,27.8,30.12,North,0,0.0,0.0,51,0.00,,,0.00,WUHU21623XXSP,2013-03-02 20:42:00,
2013-03-02 14:47:00,44.8,27.8,30.12,North,0,0.0,0.0,51,0.00,,,0.00,WUHU21623XXSP,2013-03-02 20:47:00,
2013-03-02 14:52:00,44.6,27.6,30.12,North,0,0.0,0.0,51,0.00,,,0.00,WUHU21623XXSP,2013-03-02 20:52:00,
2013-03-02 14:57:00,44.4,27.4,30.12,North,0,0.0,0.0,51,0.00,,,0.00,WUHU21623XXSP,2013-03-02 20:57:00,
2013-03-02 15:02:00,44.4,27.4,30.12,North,0,0.0,0.0,51,0.00,,,0.00,WUHU21623XXSP,2013-03-02 21:02:00,
2013-03-02 15:07:00,44.6,27.6,30.12,North,0,0.0,0.0,51,0.00,,,0.00,WUHU21623XXSP,2013-03-02 21:07:00,
2013-03-02 15:12:00,44.4,27.4,30.11,North,0,0.0,0.0,51,0.00,,,0.00,WUHU21623XXSP,2013-03-02 21:12:00,
2013-03-02 15:17:00,44.4,27.9,30.12,North,0,0.0,0.0,52,0.00,,,0.00,WUHU21623XXSP,2013-03-02 21:17:00,
2013-03-02 15:22:00,44.4,27.4,30.12,North,0,0.0,0.0,51,0.00,,,0.00,WUHU21623XXSP,2013-03-02 21:22:00,
2013-03-02 15:27:00,44.4,27.4,30.12,North,0,0.0,0.0,51,0.00,,,0.00,WUHU21623XXSP,2013-03-02 21:27:00,
2013-03-02 15:32:00,44.4,27.9,30.12,North,0,0.0,0.0,52,0.00,,,0.00,WUHU21623XXSP,2013-03-02 21:32:00,
2013-03-02 15:37:00,44.2,27.2,30.12,North,0,0.0,0.0,51,0.00,,,0.00,WUHU21623XXSP,2013-03-02 21:37:00,
2013-03-02 15:42:00,44.2,27.2,30.12,North,0,0.0,0.0,51,0.00,,,0.00,WUHU21623XXSP,2013-03-02 21:42:00,
2013-03-02 15:47:00,44.1,27.1,30.12,North,0,0.0,0.0,51,0.00,,,0.00,WUHU21623XXSP,2013-03-02 21:47:00,
2013-03-02 15:52:00,43.7,27.2,30.12,North,0,0.0,0.0,52,0.00,,,0.00,WUHU21623XXSP,2013-03-02 21:52:00,
2013-03-02 15:57:00,43.7,27.2,30.12,North,0,0.0,0.0,52,0.00,,,0.00,WUHU21623XXSP,2013-03-02 21:57:00,
2013-03-02 16:02:00,43.3,26.9,30.12,North,0,0.0,0.0,52,0.00,,,0.00,WUHU21623XXSP,2013-03-02 22:02:00,
2013-03-02 16:07:00,43.3,26.9,30.13,North,0,0.0,0.0,52,0.00,,,0.00,WUHU21623XXSP,2013-03-02 22:07:00,
2013-03-02 16:12:00,43.2,27.1,30.13,North,0,0.0,0.0,53,0.00,,,0.00,WUHU21623XXSP,2013-03-02 22:12:00,
2013-03-02 16:17:00,43.0,27.0,30.13,North,0,0.0,0.0,53,0.00,,,0.00,WUHU21623XXSP,2013-03-02 22:17:00,
2013-03-02 16:22:00,42.6,26.6,30.13,North,0,0.0,0.0,53,0.00,,,0.00,WUHU21623XXSP,2013-03-02 22:22:00,
2013-03-02 16:27:00,42.6,26.6,30.13,North,0,0.0,0.0,53,0.00,,,0.00,WUHU21623XXSP,2013-03-02 22:27:00,
2013-03-02 16:32:00,42.4,26.9,30.14,North,0,0.0,0.0,54,0.00,,,0.00,WUHU21623XXSP,2013-03-02 22:32:00,
2013-03-02 16:37:00,42.4,26.9,30.14,North,0,0.0,0.0,54,0.00,,,0.00,WUHU21623XXSP,2013-03-02 22:37:00,
2013-03-02 16:42:00,42.3,26.7,30.14,North,0,0.0,0.0,54,0.00,,,0.00,WUHU21623XXSP,2013-03-02 22:42:00,
2013-03-02 16:47:00,42.1,26.5,30.14,North,0,0.0,0.0,54,0.00,,,0.00,WUHU21623XXSP,2013-03-02 22:47:00,
2013-03-02 16:52:00,42.1,26.5,30.14,North,0,0.0,0.0,54,0.00,,,0.00,WUHU21623XXSP,2013-03-02 22:52:00,
2013-03-02 16:57:00,41.9,26.8,30.14,North,0,0.0,0.0,55,0.00,,,0.00,WUHU21623XXSP,2013-03-02 22:57:00,
2013-03-02 17:02:00,41.7,26.2,30.14,North,0,0.0,0.0,54,0.00,,,0.00,WUHU21623XXSP,2013-03-02 23:02:00,
2013-03-02 17:07:00,41.7,26.2,30.15,North,0,0.0,0.0,54,0.00,,,0.00,WUHU21623XXSP,2013-03-02 23:07:00,
2013-03-02 17:12:00,41.5,26.5,30.15,North,0,0.0,0.0,55,0.00,,,0.00,WUHU21623XXSP,2013-03-02 23:12:00,
2013-03-02 17:17:00,41.5,26.5,30.15,North,0,0.0,0.0,55,0.00,,,0.00,WUHU21623XXSP,2013-03-02 23:17:00,
2013-03-02 17:22:00,41.4,25.9,30.15,North,0,0.0,0.0,54,0.00,,,0.00,WUHU21623XXSP,2013-03-02 23:22:00,
2013-03-02 17:27:00,41.4,26.3,30.15,North,0,0.0,0.0,55,0.00,,,0.00,WUHU21623XXSP,2013-03-02 23:27:00,
2013-03-02 17:32:00,41.2,26.1,30.15,North,0,0.0,0.0,55,0.00,,,0.00,WUHU21623XXSP,2013-03-02 23:32:00,
2013-03-02 17:37:00,41.0,26.0,30.15,North,0,0.0,0.0,55,0.00,,,0.00,WUHU21623XXSP,2013-03-02 23:37:00,
2013-03-02 17:42:00,40.8,26.2,30.15,North,0,0.0,0.0,56,0.00,,,0.00,WUHU21623XXSP,2013-03-02 23:42:00,
2013-03-02 17:47:00,40.8,26.2,30.16,North,0,0.0,0.0,56,0.00,,,0.00,WUHU21623XXSP,2013-03-02 23:47:00,
2013-03-02 17:52:00,40.8,26.2,30.16,North,0,0.0,0.0,56,0.00,,,0.00,WUHU21623XXSP,2013-03-02 23:52:00,
2013-03-02 17:57:00,40.8,26.2,30.16,North,0,0.0,0.0,56,0.00,,,0.00,WUHU21623XXSP,2013-03-02 23:57:00,
2013-03-02 18:02:00,40.6,26.1,30.16,North,0,0.0,0.0,56,0.00,,,0.00,WUHU21623XXSP,2013-03-03 00:02:00,
2013-03-02 18:07:00,40.6,26.1,30.17,North,0,0.0,0.0,56,0.00,,,0.00,WUHU21623XXSP,2013-03-03 00:07:00,
2013-03-02 18:12:00,40.5,26.1,30.17,North,0,0.0,0.0,56,0.00,,,0.00,WUHU21623XXSP,2013-03-03 00:12:00,
2013-03-02 18:17:00,40.5,25.9,30.17,North,0,0.0,0.0,56,0.00,,,0.00,WUHU21623XXSP,2013-03-03 00:17:00,
2013-03-02 18:22:00,40.3,25.7,30.17,North,0,0.0,0.0,56,0.00,,,0.00,WUHU21623XXSP,2013-03-03 00:22:00,
2013-03-02 18:27:00,40.3,25.7,30.18,North,0,0.0,0.0,56,0.00,,,0.00,WUHU21623XXSP,2013-03-03 00:27:00,
2013-03-02 18:32:00,40.3,25.7,30.18,North,0,0.0,0.0,56,0.00,,,0.00,WUHU21623XXSP,2013-03-03 00:32:00,
2013-03-02 18:37:00,40.1,25.6,30.18,North,0,0.0,0.0,56,0.00,,,0.00,WUHU21623XXSP,2013-03-03 00:37:00,
2013-03-02 18:42:00,40.1,25.6,30.18,North,0,0.0,0.0,56,0.00,,,0.00,WUHU21623XXSP,2013-03-03 00:42:00,
2013-03-02 18:48:00,39.9,25.4,30.18,North,0,0.0,0.0,56,0.00,,,0.00,WUHU21623XXSP,2013-03-03 00:48:00,
2013-03-02 18:53:00,39.9,25.4,30.19,North,0,0.0,0.0,56,0.00,,,0.00,WUHU21623XXSP,2013-03-03 00:53:00,
2013-03-02 18:58:00,39.9,25.4,30.19,North,0,0.0,0.0,57,0.00,,,0.00,WUHU21623XXSP,2013-03-03 00:58:00,
2013-03-02 19:03:00,39.9,25.8,30.19,North,0,0.0,0.0,57,0.00,,,0.00,WUHU21623XXSP,2013-03-03 01:03:00,
2013-03-02 19:08:00,39.9,25.8,30.19,North,0,0.0,0.0,57,0.00,,,0.00,WUHU21623XXSP,2013-03-03 01:08:00,
2013-03-02 19:13:00,39.9,25.8,30.19,North,0,0.0,0.0,57,0.00,,,0.00,WUHU21623XXSP,2013-03-03 01:13:00,
2013-03-02 19:18:00,39.7,25.6,30.19,North,0,0.0,0.0,57,0.00,,,0.00,WUHU21623XXSP,2013-03-03 01:18:00,
2013-03-02 19:25:00,39.7,25.6,30.19,North,0,0.0,0.0,57,0.00,,,0.00,WUHU21623XXSP,2013-03-03 01:25:00,
2013-03-02 19:30:00,39.7,26.1,30.19,North,0,0.0,0.0,58,0.00,,,0.00,WUHU21623XXSP,2013-03-03 01:30:00,
2013-03-02 19:35:00,39.6,25.9,30.19,North,0,0.0,0.0,58,0.00,,,0.00,WUHU21623XXSP,2013-03-03 01:35:00,
2013-03-02 19:40:00,39.6,25.9,30.19,North,0,0.0,0.0,58,0.00,,,0.00,WUHU21623XXSP,2013-03-03 01:40:00,
2013-03-02 19:45:00,39.6,26.3,30.19,North,0,0.0,0.0,59,0.00,,,0.00,WUHU21623XXSP,2013-03-03 01:45:00,
2013-03-02 19:50:00,39.4,26.1,30.19,North,0,0.0,0.0,59,0.00,,,0.00,WUHU21623XXSP,2013-03-03 01:50:00,
2013-03-02 19:55:00,39.4,26.1,30.19,North,0,0.0,0.0,59,0.00,,,0.00,WUHU21623XXSP,2013-03-03 01:55:00,
2013-03-02 20:01:00,39.4,26.1,30.19,North,0,0.0,0.0,59,0.00,,,0.00,WUHU21623XXSP,2013-03-03 02:01:00,
2013-03-02 20:06:00,39.4,26.1,30.20,North,0,0.0,0.0,59,0.00,,,0.00,WUHU21623XXSP,2013-03-03 02:06:00,
2013-03-02 20:13:00,39.4,26.1,30.20,North,0,0.0,0.0,59,0.00,,,0.00,WUHU21623XXSP,2013-03-03 02:13:00,
2013-03-02 20:18:00,39.4,26.1,30.20,North,0,0.0,0.0,59,0.00,,,0.00,WUHU21623XXSP,2013-03-03 02:18:00,
2013-03-02 20:23:00,39.4,26.1,30.21,North,0,0.0,0.0,59,0.00,,,0.00,WUHU21623XXSP,2013-03-03 02:23:00,
2013-03-02 20:26:00,39.4,26.1,30.21,North,0,0.0,0.0,59,0.00,,,0.00,WUHU21623XXSP,2013-03-03 02:26:00,
2013-03-02 20:38:00,39.0,26.3,30.21,North,0,0.0,0.0,60,0.00,,,0.00,WUHU21623XXSP,2013-03-03 02:38:00,
2013-03-02 20:43:00,39.0,26.3,30.21,North,0,0.0,0.0,60,0.00,,,0.00,WUHU21623XXSP,2013-03-03 02:43:00,
2013-03-02 20:48:00,39.0,25.8,30.21,North,0,0.0,0.0,59,0.00,,,0.00,WUHU21623XXSP,2013-03-03 02:48:00,
2013-03-02 20:51:00,39.0,25.8,30.21,North,0,0.0,0.0,59,0.00,,,0.00,WUHU21623XXSP,2013-03-03 02:51:00,
2013-03-02 20:53:00,39.0,25.8,30.21,North,0,0.0,0.0,59,0.00,,,0.00,WUHU21623XXSP,2013-03-03 02:53:00,
2013-03-02 21:00:00,38.8,25.7,30.21,North,0,0.0,0.0,59,0.00,,,0.00,WUHU21623XXSP,2013-03-03 03:00:00,
2013-03-02 21:10:00,38.8,25.7,30.22,North,0,0.0,0.0,59,0.00,,,0.00,WUHU21623XXSP,2013-03-03 03:10:00,
2013-03-02 21:15:00,38.8,25.7,30.22,North,0,0.0,0.0,59,0.00,,,0.00,WUHU21623XXSP,2013-03-03 03:15:00,
2013-03-02 21:20:00,38.8,25.7,30.22,North,0,0.0,0.0,59,0.00,,,0.00,WUHU21623XXSP,2013-03-03 03:20:00,
2013-03-02 21:23:00,38.8,25.7,30.22,North,0,0.0,0.0,59,0.00,,,0.00,WUHU21623XXSP,2013-03-03 03:23:00,
2013-03-02 21:30:00,38.8,25.7,30.22,North,0,0.0,0.0,59,0.00,,,0.00,WUHU21623XXSP,2013-03-03 03:30:00,
2013-03-02 21:36:00,38.7,25.5,30.22,North,0,0.0,0.0,59,0.00,,,0.00,WUHU21623XXSP,2013-03-03 03:36:00,
2013-03-02 21:49:00,38.5,25.8,30.22,North,0,0.0,0.0,60,0.00,,,0.00,WUHU21623XXSP,2013-03-03 03:49:00,
2013-03-02 21:58:00,38.5,25.3,30.22,North,0,0.0,0.0,59,0.00,,,0.00,WUHU21623XXSP,2013-03-03 03:58:00,
2013-03-02 22:02:00,38.5,25.3,30.22,North,0,0.0,0.0,59,0.00,,,0.00,WUHU21623XXSP,2013-03-03 04:02:00,
2013-03-02 22:08:00,38.3,25.2,30.22,North,0,0.0,0.0,59,0.00,,,0.00,WUHU21623XXSP,2013-03-03 04:08:00,
2013-03-02 22:15:00,38.3,24.7,30.22,North,0,0.0,0.0,58,0.00,,,0.00,WUHU21623XXSP,2013-03-03 04:15:00,
2013-03-02 22:21:00,38.1,24.6,30.22,North,0,0.0,0.0,58,0.00,,,0.00,WUHU21623XXSP,2013-03-03 04:21:00,
2013-03-02 22:26:00,38.1,24.6,30.22,North,0,0.0,0.0,58,0.00,,,0.00,WUHU21623XXSP,2013-03-03 04:26:00,
2013-03-02 22:32:00,37.9,24.4,30.23,North,0,0.0,0.0,58,0.00,,,0.00,WUHU21623XXSP,2013-03-03 04:32:00,
2013-03-02 22:38:00,37.9,24.4,30.23,North,0,0.0,0.0,58,0.00,,,0.00,WUHU21623XXSP,2013-03-03 04:38:00,
2013-03-02 22:45:00,37.9,24.4,30.22,North,0,0.0,0.0,58,0.00,,,0.00,WUHU21623XXSP,2013-03-03 04:45:00,
2013-03-02 22:49:00,37.8,24.3,30.22,North,0,0.0,0.0,58,0.00,,,0.00,WUHU21623XXSP,2013-03-03 04:49:00,
2013-03-02 22:56:00,37.8,24.4,30.22,North,0,0.0,0.0,58,0.00,,,0.00,WUHU21623XXSP,2013-03-03 04:56:00,
2013-03-02 23:02:00,37.8,24.3,30.22,North,0,0.0,0.0,58,0.00,,,0.00,WUHU21623XXSP,2013-03-03 05:02:00,
2013-03-02 23:08:00,37.6,24.3,30.22,North,0,0.0,0.0,58,0.00,,,0.00,WUHU21623XXSP,2013-03-03 05:08:00,
2013-03-02 23:15:00,37.8,24.3,30.21,North,0,0.0,0.0,58,0.00,,,0.00,WUHU21623XXSP,2013-03-03 05:15:00,
2013-03-02 23:21:00,37.6,24.1,30.21,North,0,0.0,0.0,58,0.00,,,0.00,WUHU21623XXSP,2013-03-03 05:21:00,
2013-03-02 23:28:00,37.6,24.1,30.21,North,0,0.0,0.0,58,0.00,,,0.00,WUHU21623XXSP,2013-03-03 05:28:00,
2013-03-02 23:34:00,37.6,24.1,30.21,North,0,0.0,0.0,58,0.00,,,0.00,WUHU21623XXSP,2013-03-03 05:34:00,
2013-03-02 23:38:00,37.6,24.1,30.21,North,0,0.0,0.0,58,0.00,,,0.00,WUHU21623XXSP,2013-03-03 05:38:00,
2013-03-02 23:45:00,37.4,23.9,30.21,North,0,0.0,0.0,58,0.00,,,0.00,WUHU21623XXSP,2013-03-03 05:45:00,
2013-03-02 23:51:00,37.4,23.9,30.21,North,0,0.0,0.0,58,0.00,,,0.00,WUHU21623XXSP,2013-03-03 05:51:00,
2013-03-02 23:58:00,37.4,23.9,30.20,North,0,0.0,0.0,58,0.00,,,0.00,WUHU21623XXSP,2013-03-03 05:58:00,